Weather History for Chester, SC

Change the Weather History Date:

Friday, April 26, 2013

  Actual Average (KUZA) Record (KUZA)
Temperature  
Mean Temperature 58 °F -  
Max Temperature 73 °F 75 °F 91 °F (1960)
Min Temperature 44 °F 51 °F 35 °F (1968)
Degree Days  
Heating Degree Days 6    
Growing Degree Days 8 (Base 50)    
Moisture  
Dew Point 39 °F    
Average Humidity 47    
Maximum Humidity 76    
Minimum Humidity 25    
Precipitation  
Precipitation 0.00 in - - ()
Sea Level Pressure  
Sea Level Pressure 30.35 in    
Wind  
Wind Speed 6 mph (NE)    
Max Wind Speed 15 mph    
Max Gust Speed 21 mph    
Visibility 9 miles    
Events Thunderstorm    
Averages and records for this station are not official NWS values.
T = Trace of Precipitation, MM = Missing Value Source: NWS Daily Summary

Daily Weather History Graph

Daily Weather History Graph

Search for Another Location

Airport:

Trip Planner

Search our weather history database for the weather conditions in past years. The results will help you decide how hot, cold, wet, or windy it might be!

Date:

Astronomy

Apr. 26, 2013 Rise Set
Actual Time 6:39 AM EDT 8:06 PM EDT
Civil Twilight 6:12 AM EDT 8:32 PM EDT
Nautical Twilight 5:40 AM EDT 9:04 PM EDT
Astronomical Twilight 5:07 AM EDT 9:38 PM EDT
Moon 9:23 PM EDT (4/26) 7:07 AM EDT (4/26)
Length of Visible Light 14h 19m
Length of Day
13h 26m
Full, 99% of the Moon is Illuminated
Apr 26
Full
May 2
Last Quarter
May 9
New
May 18
First Quarter
May 25
Full

Hourly Weather History & Observations

Time (EDT) Temp. Windchill Dew Point Humidity Pressure Visibility Wind Dir Wind Speed Gust Speed Precip Events Conditions
12:15 AM 53.6 °F - 41.0 °F 62% 30.27 in 10.0 mi North 4.6 mph - N/A   Clear
12:35 AM 53.6 °F - 41.0 °F 62% 30.29 in 10.0 mi NNW 11.5 mph - N/A   Clear
12:55 AM 55.4 °F - 41.0 °F 58% 30.30 in 10.0 mi NNW 6.9 mph - N/A   Clear
1:15 AM 55.4 °F - 37.4 °F 51% 30.30 in 10.0 mi North 8.1 mph - N/A   Clear
1:35 AM 53.6 °F - 37.4 °F 54% 30.30 in 10.0 mi North 6.9 mph - N/A   Clear
1:55 AM 53.6 °F - 35.6 °F 51% 30.30 in 10.0 mi North 8.1 mph - N/A   Clear
2:15 AM 53.6 °F - 35.6 °F 51% 30.30 in 10.0 mi North 6.9 mph - N/A   Clear
2:35 AM 53.6 °F - 35.6 °F 51% 30.30 in 10.0 mi North 6.9 mph - N/A   Clear
2:55 AM 53.6 °F - 35.6 °F 51% 30.30 in 10.0 mi North 6.9 mph - N/A Thunderstorm Clear
3:15 AM 51.8 °F - 35.6 °F 54% 30.30 in 10.0 mi North 6.9 mph - N/A   Clear
3:35 AM 51.8 °F - 35.6 °F 54% 30.30 in 10.0 mi North 5.8 mph - N/A   Clear
3:55 AM 50.0 °F - 35.6 °F 58% 30.30 in 10.0 mi NNE 5.8 mph - N/A   Clear
4:15 AM 50.0 °F - 35.6 °F 58% 30.31 in 10.0 mi North 6.9 mph - N/A   Clear
4:35 AM 50.0 °F - 35.6 °F 58% 30.31 in 10.0 mi North 6.9 mph - N/A   Clear
4:55 AM 48.2 °F - 35.6 °F 62% 30.31 in 10.0 mi North 6.9 mph - N/A   Clear
5:15 AM 50.0 °F - 35.6 °F 58% 30.32 in 10.0 mi North 6.9 mph - N/A   Clear
5:35 AM 48.2 °F - 35.6 °F 62% 30.32 in 10.0 mi North 8.1 mph - N/A   Clear
5:55 AM 46.4 °F 43.5 °F 35.6 °F 66% 30.32 in 10.0 mi NNE 5.8 mph - N/A   Clear
6:15 AM 46.4 °F 43.5 °F 35.6 °F 66% 30.33 in 10.0 mi NNE 5.8 mph - N/A   Clear
6:35 AM 46.4 °F 43.5 °F 35.6 °F 66% 30.34 in 10.0 mi NE 5.8 mph - N/A   Clear
6:55 AM 44.6 °F 40.7 °F 37.4 °F 76% 30.36 in 10.0 mi NE 6.9 mph - N/A   Clear
7:15 AM 46.4 °F 43.5 °F 37.4 °F 71% 30.37 in 7.0 mi NE 5.8 mph - N/A   Clear
7:35 AM 48.2 °F - 37.4 °F 66% 30.38 in 10.0 mi NNE 5.8 mph - N/A   Clear
7:55 AM 51.8 °F - 37.4 °F 58% 30.39 in 7.0 mi NNE 5.8 mph - N/A   Clear
8:15 AM 53.6 °F - 37.4 °F 54% 30.40 in 10.0 mi NNE 6.9 mph - N/A   Clear
8:35 AM 55.4 °F - 37.4 °F 51% 30.41 in 10.0 mi NNE 9.2 mph - N/A   Clear
8:55 AM 59.0 °F - 37.4 °F 45% 30.42 in 7.0 mi NE 9.2 mph - N/A   Clear
9:15 AM 60.8 °F - 35.6 °F 39% 30.42 in 7.0 mi NE 12.7 mph 17.3 mph N/A   Clear
9:35 AM 60.8 °F - 35.6 °F 39% 30.43 in 10.0 mi NE 10.4 mph 19.6 mph N/A   Clear
9:55 AM 62.6 °F - 35.6 °F 37% 30.44 in 10.0 mi ENE 9.2 mph 20.7 mph N/A   Clear
10:15 AM 64.4 °F - 35.6 °F 34% 30.44 in 10.0 mi NE 15.0 mph 20.7 mph N/A   Clear
10:35 AM 64.4 °F - 35.6 °F 34% 30.44 in 10.0 mi NE 12.7 mph 18.4 mph N/A   Clear
10:55 AM 66.2 °F - 33.8 °F 30% 30.44 in 10.0 mi East 13.8 mph 20.7 mph N/A   Clear
11:15 AM 68.0 °F - 33.8 °F 28% 30.43 in 10.0 mi East 12.7 mph 18.4 mph N/A   Clear
11:35 AM 68.0 °F - 33.8 °F 28% 30.42 in 10.0 mi East 13.8 mph 19.6 mph N/A   Clear
11:55 AM 69.8 °F - 35.6 °F 28% 30.42 in 10.0 mi ENE 9.2 mph - N/A   Clear
12:15 PM 69.8 °F - 33.8 °F 27% 30.42 in 10.0 mi East 8.1 mph 19.6 mph N/A   Clear
12:35 PM 69.8 °F - 33.8 °F 27% 30.41 in 7.0 mi East 6.9 mph - N/A   Clear
12:55 PM 69.8 °F - 35.6 °F 28% 30.41 in 7.0 mi East 10.4 mph 19.6 mph N/A   Clear
1:15 PM 69.8 °F - 35.6 °F 28% 30.40 in 7.0 mi North 5.8 mph - N/A   Clear
1:35 PM 71.6 °F - 35.6 °F 27% 30.40 in 10.0 mi ESE 4.6 mph - N/A   Clear
1:55 PM 71.6 °F - 35.6 °F 27% 30.40 in 10.0 mi Calm Calm - N/A   Clear
2:15 PM 71.6 °F - 35.6 °F 27% 30.39 in 7.0 mi NE 5.8 mph - N/A   Clear
2:55 PM 73.4 °F - 37.4 °F 27% 30.38 in 7.0 mi SE 3.5 mph - N/A   Clear
3:15 PM 73.4 °F - 35.6 °F 25% 30.37 in 10.0 mi SE 4.6 mph - N/A   Clear
3:35 PM 73.4 °F - 35.6 °F 25% 30.36 in 7.0 mi South 3.5 mph - N/A   Clear
3:55 PM 73.4 °F - 35.6 °F 25% 30.35 in 7.0 mi NW 6.9 mph - N/A   Clear
4:15 PM 73.4 °F - 37.4 °F 27% 30.34 in 10.0 mi South 6.9 mph - N/A   Clear
4:35 PM 73.4 °F - 35.6 °F 25% 30.33 in 7.0 mi East 4.6 mph - N/A   Clear
4:55 PM 73.4 °F - 37.4 °F 27% 30.33 in 10.0 mi South 3.5 mph - N/A   Clear
5:15 PM 73.4 °F - 37.4 °F 27% 30.32 in 7.0 mi Calm Calm - N/A   Clear
5:35 PM 73.4 °F - 39.2 °F 29% 30.32 in 7.0 mi SE 4.6 mph - N/A   Clear
5:55 PM 73.4 °F - 41.0 °F 31% 30.32 in 7.0 mi Calm Calm - N/A   Clear
6:15 PM 73.4 °F - 41.0 °F 31% 30.32 in 7.0 mi SSE 6.9 mph - N/A   Clear
6:35 PM 71.6 °F - 39.2 °F 31% 30.32 in 10.0 mi Calm Calm - N/A   Clear
6:55 PM 71.6 °F - 41.0 °F 33% 30.32 in 7.0 mi Calm Calm - N/A   Clear
7:15 PM 69.8 °F - 42.8 °F 38% 30.32 in 5.0 mi South 3.5 mph - N/A   Haze
7:35 PM 66.2 °F - 44.6 °F 46% 30.33 in 7.0 mi South 3.5 mph - N/A   Clear
7:55 PM 64.4 °F - 46.4 °F 52% 30.35 in 10.0 mi Calm Calm - N/A   Clear
8:15 PM 62.6 °F - 46.4 °F 55% 30.35 in 10.0 mi Calm Calm - N/A   Clear
8:35 PM 62.6 °F - 46.4 °F 55% 30.35 in 10.0 mi Calm Calm - N/A   Clear
8:55 PM 62.6 °F - 48.2 °F 59% 30.35 in 10.0 mi Calm Calm - N/A   Clear
9:35 PM 60.8 °F - 50.0 °F 68% 30.35 in 10.0 mi Calm Calm - N/A   Clear
9:55 PM 60.8 °F - 50.0 °F 68% 30.36 in 10.0 mi Calm Calm - N/A   Clear
10:15 PM 60.8 °F - 50.0 °F 68% 30.35 in 10.0 mi Calm Calm - N/A   Clear
10:35 PM 59.0 °F - 50.0 °F 72% 30.35 in 7.0 mi Calm Calm - N/A   Clear
10:55 PM 59.0 °F - 50.0 °F 72% 30.34 in 10.0 mi Calm Calm - N/A   Clear
11:15 PM 59.0 °F - 50.0 °F 72% 30.33 in 10.0 mi Calm Calm - N/A   Clear
11:35 PM 59.0 °F - 50.0 °F 72% 30.33 in 10.0 mi Calm Calm - N/A   Scattered Clouds
11:55 PM 60.8 °F - 50.0 °F 68% 30.35 in 7.0 mi North 3.5 mph - N/A   Scattered Clouds